Location: Barruelo
(41.2448°N, 3.8231°W)
Time: 02:09:09
(UTC+00:00)

SOZ - Pass Details

Date: 19 March 2026
Orbit: 298 x 12048 km, 52.0° (Epoch: 12 April)

Event Time Altitude Azimuth Distance (km) Brightness Sun altitude
Rises 01:38:05 0° 199° (SSW) 17,182 11.9 -46.0°
Enters shadow 01:51:24 - 198° (SSW) 15,989 11.7 -44.7°
Exits shadow 02:31:12 32° 190° (S) 9,930 10.6 -40.1°
Maximum altitude 02:55:13 57° 135° (SE) 4,655 9.2 -36.8°
Drops below altitude 10° 03:08:10 10° 61° (ENE) 4,331 10.1 -34.9°
Sets 03:10:17 0° 57° (ENE) 4,786 10.6 -34.6°
